Zurück zum Katalog

HULIANWANG DIGUI-16

AktivKommunikationLEO
NORAD 62976·PAYLOAD·🇨🇳 China

Gestartet Feb 11, 2025 von Wenchang Space Launch Site

Loading…

Nächste Überflüge (nächste 24 Stunden)

TLE

AktuellSource: Space-Track

Epoche: Sep 14, 2026, 13:58 UTC

1 62976U 25030F   26257.58201140 -.00000093  00000-0  65858-4 0  9992
2 62976  50.0041 275.0069 0000338  16.1082 343.9801 13.29327927 77752

Verfolge HULIANWANG DIGUI-16 in Echtzeit mit AllMySat

Download on the App Store